Regional Weather Roundup
Issued by NWS Sioux Falls, SD

Home | Current Version | Previous Version | Graphics & Text | Print | Product List | Glossary On
Versions: 1 2 3 4 5 6 7 8 9 10 11 12 13 14 15 16 17 18 19 20 21 22 23 24 25 26 27 28 29 30 31 32 33 34 35 36 37 38 39 40 41 42 43 44 45 46 47 48 49 50
000
ASUS43 KFSD 011610
RWRFSD

WEATHER ROUNDUP FOR SE SOUTH DAKOTA/SW MINNESOTA/NW IOWA
NATIONAL WEATHER SERVICE SIOUX FALLS SD
1100 AM CDT SAT AUG 01 2015

NOTE: "FAIR" INDICATES FEW OR NO CLOUDS BELOW 12,000 FEET WITH NO
SIGNIFICANT WEATHER AND OR OBSTRUCTIONS TO VISIBILITY.


SDZ038>040-050-052>070-011700-
SOUTHEAST SOUTH DAKOTA

CITY           SKY/WX    TMP DP  RH WIND       PRES   REMARKS
BROOKINGS      MOSUNNY   79  70  73 S10       30.00F
CHAMBERLAIN    PTSUNNY   75  62  64 SW8       29.96S
HURON          MOSUNNY   78  67  68 SW16      29.93F
MADISON        FAIR      79  66  65 SW13G20   30.01S
MITCHELL       PTSUNNY   78  59  51 S9G18     29.96F
SIOUX FALLS    CLOUDY    79  67  66 SW9       30.01S
WINNER         FAIR      71  57  61 S23G36    29.99R
YANKTON        CLOUDY    75  63  64 SW16      30.00F
$$

MNZ071-072-080-081-089-090-097-098-011700-
SOUTHWEST MINNESOTA

CITY           SKY/WX    TMP DP  RH WIND       PRES   REMARKS
FAIRMONT       SUNNY     81  64  57 W7        30.00F
JACKSON        MOSUNNY   81  68  65 SW10      30.02S
LUVERNE        CLOUDY    77  70  78 SW5       30.02F
MARSHALL       PTSUNNY   77  66  69 CALM      30.00S
MONTEVIDEO     MOSUNNY   81  64  57 S5        29.98F
PIPESTONE      PTSUNNY   77  70  78 SW9       30.01F
REDWOOD FALLS  SUNNY     77  65  66 SE3       29.98F
TRACY          MOSUNNY   81  72  74 CALM      29.99F
WINDOM         MOSUNNY   81  70  69 CALM      30.00F
WORTHINGTON    PTSUNNY   77  66  69 SW13      30.02F
$$

IAZ001>003-012>014-020>022-031-032-NEZ013-014-SDZ071-011700-
NORTHWEST IOWA

CITY           SKY/WX    TMP DP  RH WIND       PRES   REMARKS
CHEROKEE       PTSUNNY   78  69  73 W7        30.02F
DENISON        PTSUNNY   75  68  78 SW7       30.03F
ESTHERVILLE    MOSUNNY   78  69  73 W9        30.01F
LE MARS        PTSUNNY   79  70  73 SW5       30.03S
ORANGE CITY    CLOUDY    75  66  73 SW6       30.03S
SHELDON        CLOUDY    75  70  83 SW7       30.01F
SIOUX CITY     MOSUNNY   78  64  61 W10       30.02F
SPENCER        PTSUNNY   78  69  73 SW13      30.02F
STORM LAKE     MOSUNNY   77  68  73 SW10      30.05F
$$

ABBREVIATIONS USED IN REMARKS
   TC - TEMPERATURE IN CELSIUS
  WCI - WIND CHILL INDEX
   HX - HEAT INDEX
  VSB - VISIBILITY



USA.gov is the U.S. government's official web portal to all federal, state and local government web resources and services.